Theta_e
305 311 311 311 311 311 311 311 312 312 312 312 312 314 313 313 314 319 322 328 323 317 324 324 325 322 322 321 315 328 322 324 324 315 313 313 312 314 312 313 313 313 311 310 311 308 304 324 322 314 326 329 327 327
306 310 310 310 310 310 310 311 311 311 311 312 312 313 313 313 312 311 321 324 324 319 320 328 329 330 329 328 328 331 328 330 331 320 317 316 314 316 313 307 322 312 318 318 317 318 324 326 331 332 330 327 329 330
310 310 310 310 310 310 310 310 310 311 311 311 311 312 313 312 312 311 321 325 320 314 314 318 321 329 331 330 335 328 330 335 335 338 327 323 317 319 311 311 314 321 325 318 320 322 324 326 329 330 331 332 333 331
310 310 310 310 309 309 310 310 310 311 311 311 311 312 312 312 311 310 319 323 322 319 310 315 331 327 329 333 333 334 333 338 339 335 327 322 316 323 316 318 316 317 324 319 320 325 324 326 331 332 333 332 329 330
309 310 309 309 309 309 309 309 310 310 311 311 312 312 311 311 311 316 321 321 322 318 312 318 326 326 329 329 328 331 333 331 328 326 324 320 323 324 321 319 314 318 319 316 318 328 328 329 331 331 330 328 327 325
309 309 309 309 310 309 309 309 309 310 310 310 310 310 311 310 309 322 318 322 319 322 318 312 323 324 326 327 325 325 326 326 324 323 322 326 332 326 315 312 320 323 325 327 325 331 333 329 329 327 323 323 324 325
309 309 309 310 310 309 309 309 310 310 310 310 310 310 310 309 318 315 313 314 310 325 320 314 314 321 324 324 322 321 327 323 323 322 321 320 326 322 318 312 319 323 326 327 329 331 326 324 321 324 325 324 324 329
308 309 309 309 309 309 310 310 309 310 309 309 309 310 309 308 307 316 318 313 313 320 320 312 313 316 323 316 315 324 319 322 322 319 325 319 323 322 313 320 322 325 324 324 328 331 330 325 325 325 326 327 327 329
308 309 309 309 309 309 309 309 309 309 309 309 309 310 314 315 316 318 310 310 324 320 313 313 309 308 320 318 321 319 320 312 322 316 316 320 316 312 317 321 321 323 323 324 326 326 324 323 323 324 327 327 327 329
309 309 309 310 309 309 308 308 309 308 309 309 313 314 311 316 306 312 317 317 317 317 315 310 319 312 316 315 313 316 315 311 309 313 321 314 311 320 321 324 326 325 326 326 322 321 322 322 323 325 326 328 330 330
309 309 309 309 309 308 308 308 308 308 308 315 312 313 318 309 316 314 309 308 309 307 311 314 313 313 320 312 310 316 311 314 305 310 310 309 310 318 323 322 325 327 328 328 327 327 325 325 326 326 328 330 329 329
309 309 308 308 308 307 308 308 308 312 317 311 314 313 318 313 310 304 304 308 306 305 311 310 311 314 317 321 313 313 307 309 301 315 309 304 315 321 321 320 323 326 328 327 325 323 324 327 329 330 330 328 327 328
308 307 307 307 307 307 307 307 307 307 307 318 314 308 310 307 298 298 297 301 303 310 311 312 308 312 316 317 313 311 303 303 314 306 304 310 318 321 322 321 322 326 326 325 323 324 327 328 331 331 328 328 328 325
307 307 307 307 307 307 307 307 307 310 315 308 304 293 301 299 301 303 304 306 311 313 311 312 311 309 314 310 312 302 309 309 301 299 302 312 320 322 323 322 322 320 321 321 323 326 326 329 330 328 328 327 324 321
306 306 306 307 306 306 307 307 308 317 313 306 306 295 299 307 308 309 311 311 313 316 312 311 313 311 307 306 308 306 300 298 300 301 309 315 322 324 324 324 322 321 321 321 323 325 327 329 327 327 327 326 324 321
305 306 305 306 306 306 306 309 315 316 311 308 306 303 307 305 305 307 309 310 315 316 315 313 307 304 303 305 301 300 298 297 302 311 314 319 323 324 327 326 324 324 325 325 325 327 328 328 327 327 327 324 321 318
304 304 305 305 306 307 308 313 313 305 306 303 304 311 308 309 307 309 314 311 316 311 306 309 301 301 309 301 300 306 302 307 312 315 319 325 326 326 328 326 325 326 327 327 327 328 328 328 327 325 322 321 320 319
304 306 305 305 308 309 310 310 308 306 300 306 303 306 310 311 311 311 312 314 312 312 311 306 310 302 300 298 301 307 313 315 317 317 319 323 328 327 325 327 326 327 328 328 328 328 328 327 324 322 323 321 319 318
304 304 304 304 307 306 303 305 308 301 303 306 306 307 309 310 313 313 314 314 315 316 312 309 303 302 303 309 309 311 314 315 314 317 320 324 327 328 328 328 327 328 328 328 328 327 327 327 325 323 322 320 317 317
303 303 303 305 307 302 297 301 308 303 301 303 307 304 307 308 310 312 313 313 313 310 306 304 304 309 309 313 316 317 316 318 315 311 312 315 321 326 328 327 326 328 327 328 328 314 327 325 325 324 322 319 318 316
304 302 303 305 303 302 300 300 302 302 303 302 305 305 304 307 306 306 307 311 307 306 305 309 312 312 316 317 316 318 319 317 316 314 313 312 317 319 324 326 327 325 323 323 323 322 316 323 323 323 322 319 319 319
302 302 303 305 298 298 299 302 300 303 301 301 301 304 302 302 303 304 310 305 304 306 308 311 314 314 313 314 315 316 316 317 318 315 304 310 315 314 316 320 321 321 322 321 320 319 320 322 323 323 322 320 314 318
301 303 300 298 293 293 292 303 296 297 294 296 299 297 299 301 304 306 302 305 306 309 310 310 311 312 312 314 315 315 315 315 314 314 314 315 315 316 316 315 318 318 318 319 322 322 322 308 316 320 321 320 320 318
299 297 292 291 292 290 297 294 300 296 297 294 293 292 294 298 303 300 297 300 304 307 307 309 309 308 309 311 309 309 311 314 313 314 315 314 313 313 315 315 316 317 317 318 319 320 322 323 312 320 320 320 319 318
291 291 291 285 293 289 289 290 292 292 290 293 291 292 295 300 295 294 294 298 301 302 304 305 305 305 304 305 307 308 312 310 309 309 312 314 313 313 314 315 315 316 317 315 316 317 318 319 319 319 319 318 317 317
286 290 288 290 290 289 289 287 288 289 291 290 291 296 297 294 290 289 295 299 300 301 302 303 304 303 303 305 304 305 307 309 309 307 308 309 310 309 309 309 309 312 316 316 314 314 316 316 316 316 317 316 298 313
286 288 294 300 296 294 292 294 295 291 289 288 291 292 292 287 288 294 299 302 301 303 306 307 307 306 305 305 307 309 312 313 312 310 310 310 310 310 309 308 308 311 315 316 318 317 315 315 314 314 314 316 317 317
294 294 289 294 294 297 289 291 289 289 291 294 294 290 289 290 293 301 304 308 310 310 309 309 310 310 310 310 311 311 311 312 313 314 314 313 313 313 313 312 313 297 314 316 316 316 315 314 314 314 314 314 314 315
293 297 296 291 292 293 292 291 291 295 297 296 293 292 294 299 302 303 306 306 306 306 305 304 305 308 310 310 311 310 310 309 308 305 305 306 307 310 312 315 315 315 316 315 291 300 310 311 310 310 310 310 311 312
292 298 293 291 290 289 294 297 296 299 300 299 299 298 298 300 303 305 305 305 304 305 306 306 306 306 305 305 306 307 309 310 308 306 303 304 307 310 310 312 312 311 313 311 311 311 290 302 302 308 308 310 310 310
299 297 293 294 292 295 297 300 301 300 299 299 300 298 298 301 304 306 306 307 306 306 305 304 304 305 305 304 304 304 303 307 308 309 309 309 309 310 311 311 312 312 312 312 312 310 309 308 308 308 307 308 308 306
296 294 293 291 293 298 300 298 298 297 298 298 298 300 299 299 297 302 306 307 306 305 301 303 306 306 309 309 309 308 293 307 307 308 308 309 309 310 310 310 311 311 311 311 311 310 309 308 308 308 307 308 308 307
295 295 294 293 294 295 298 297 296 296 297 297 298 299 300 299 296 304 310 311 309 308 307 308 308 309 309 310 310 309 300 311 306 292 293 291 289 295 306 310 310 310 309 309 310 309 308 307 308 308 308 308 308 307
Wind_Speed
12 15 17 16 14 13 11 9 8 6 3 3 5 7 7 7 6 5 5 2 6 8 4 4 2 4 5 6 8 6 5 8 7 11 11 9 6 2 7 8 7 9 10 10 12 14 14 17 8 5 5 2 3 4
13 19 18 17 14 13 11 10 8 6 4 4 6 7 8 7 5 4 3 2 3 6 7 4 5 4 5 7 7 2 4 4 6 6 9 9 6 10 3 9 5 7 7 7 8 6 6 10 14 4 1 3 5 5
19 21 19 17 15 14 12 10 8 6 4 4 6 7 9 7 5 3 2 2 4 6 8 8 9 7 3 2 3 6 5 6 1 5 7 6 4 6 5 9 11 10 3 6 8 1 1 3 3 1 1 2 4 3
24 22 20 18 16 14 12 11 8 6 4 4 6 8 9 9 8 6 2 2 4 5 7 10 6 6 3 4 2 2 5 3 5 6 7 7 7 3 10 5 6 7 4 9 9 11 4 4 8 5 6 4 4 6
23 22 20 18 16 14 12 11 8 6 4 4 6 7 8 9 9 6 2 2 2 6 5 6 7 7 7 5 4 2 2 5 7 6 6 8 5 2 6 6 10 11 2 7 5 7 4 8 6 7 8 8 8 8
23 21 20 18 16 14 12 10 8 5 3 4 5 7 7 7 6 6 6 3 5 3 6 5 7 8 8 7 5 4 4 5 5 5 5 2 4 5 8 7 4 1 4 3 3 2 7 8 7 9 9 9 9 10
22 21 20 18 15 13 11 9 6 3 2 4 5 6 6 4 6 3 7 5 5 4 5 4 6 7 6 6 5 6 4 5 5 5 3 8 4 4 8 11 1 3 2 2 3 3 8 12 7 7 8 8 6 10
23 21 19 16 14 12 10 8 5 1 3 5 5 5 1 4 6 4 4 2 5 5 4 5 4 7 8 8 7 3 6 5 6 6 1 6 5 5 6 9 9 1 5 4 6 9 3 7 5 5 6 8 10 8
23 21 18 15 13 11 9 6 2 2 5 7 6 4 4 4 4 5 2 3 4 5 4 5 5 5 8 4 1 5 3 5 3 5 9 3 8 8 5 6 10 5 5 6 4 7 9 10 5 6 9 8 9 10
22 20 17 13 12 10 7 4 0 5 8 8 4 6 4 4 1 4 4 5 6 5 4 6 2 4 4 7 6 2 3 5 4 6 2 5 11 14 7 3 6 12 8 3 8 8 10 10 6 3 8 10 12 11
21 18 16 13 11 8 5 1 3 7 6 5 5 0 5 5 5 4 4 5 5 5 6 4 4 1 1 5 1 1 1 1 5 3 4 5 3 6 7 5 7 7 9 8 10 4 1 5 10 9 13 12 12 14
19 17 15 12 10 7 5 3 3 4 2 2 3 1 3 5 4 5 5 4 6 5 5 6 4 4 4 3 3 3 4 3 6 2 3 7 8 7 6 5 4 4 9 9 4 4 6 10 11 12 13 13 13 14
18 15 14 12 10 7 5 5 5 6 2 3 5 5 2 4 1 7 8 6 5 4 4 5 6 4 4 4 3 2 5 5 2 4 6 7 7 6 6 5 3 4 4 5 9 5 7 11 13 13 14 13 14 13
17 15 13 11 9 7 6 5 3 4 5 5 5 2 5 6 6 5 6 5 7 3 5 5 5 5 2 5 2 4 1 2 4 5 4 9 8 7 4 5 2 4 4 6 7 8 9 11 12 13 13 12 12 12
18 16 14 10 7 5 4 4 6 4 3 3 3 4 7 4 4 4 5 4 3 1 4 3 2 4 7 4 4 2 3 5 4 4 10 7 6 5 5 5 4 2 4 5 5 7 10 11 12 12 12 12 11 11
15 12 6 5 9 7 5 5 2 1 1 2 2 4 2 5 6 5 5 6 1 2 2 3 3 5 5 4 5 7 5 4 3 5 6 5 6 5 5 5 4 3 3 3 4 6 9 10 11 12 12 11 10 10
10 5 3 6 8 6 8 0 1 2 1 2 3 4 4 2 5 6 2 5 1 5 7 2 4 6 1 5 6 2 4 7 5 5 7 6 6 5 5 4 0 1 2 3 5 6 8 9 11 11 11 10 9 8
7 7 7 6 4 3 3 5 2 0 2 1 4 4 2 3 3 5 3 2 4 2 1 2 3 5 4 4 4 5 2 5 4 5 6 5 5 4 3 4 1 2 3 4 5 7 9 10 10 8 9 9 8 8
9 7 9 11 6 4 3 4 4 1 3 2 2 1 2 3 4 3 1 3 1 2 4 3 4 4 3 0 4 5 4 4 4 1 4 5 4 5 3 1 2 1 3 5 6 6 7 9 6 7 7 8 8 8
15 14 11 11 9 4 4 3 3 3 3 3 0 5 3 3 4 2 1 1 1 3 5 4 6 2 6 8 4 6 5 2 5 4 3 3 4 1 3 5 4 3 4 5 6 2 7 7 5 6 7 8 8 8
6 3 5 4 5 5 0 1 1 3 1 3 3 3 3 3 5 5 4 2 4 4 4 3 1 7 4 3 4 2 2 5 6 5 6 7 7 7 3 5 5 3 4 5 6 7 5 7 6 5 7 7 8 6
3 3 2 3 4 2 1 3 2 2 2 2 3 3 3 4 4 4 2 4 4 4 4 2 1 3 6 5 3 4 5 5 4 5 5 5 8 6 6 5 3 2 3 4 4 5 7 8 6 6 7 7 6 8
3 2 3 3 4 3 2 2 2 2 3 5 3 2 2 3 2 3 4 5 5 5 4 5 5 5 6 7 5 7 7 6 6 8 4 6 7 5 6 8 7 5 6 4 2 5 2 4 2 6 7 6 8 9
1 3 3 2 3 2 4 4 2 3 3 4 4 4 4 4 3 4 7 8 7 6 6 6 7 8 9 11 9 9 8 8 8 8 7 8 8 8 9 9 7 6 7 6 7 3 6 4 1 6 8 10 11 10
1 1 4 2 3 5 6 7 6 5 5 5 6 4 3 2 4 5 6 5 6 5 6 6 7 8 8 8 8 8 8 8 8 9 9 10 10 10 9 10 10 10 10 10 9 9 9 9 9 9 9 11 13 14
2 4 3 3 4 5 5 6 7 7 5 6 5 2 2 3 5 5 4 7 5 5 6 6 5 6 7 7 7 7 7 7 8 10 10 11 12 11 12 13 13 12 10 12 11 10 12 11 11 13 11 11 9 10
2 4 4 2 4 3 3 3 3 5 6 5 4 6 5 5 5 4 3 3 4 3 4 4 6 7 8 8 7 6 6 8 9 9 9 11 11 11 12 13 15 12 12 12 11 12 11 11 12 15 14 10 8 10
2 1 5 4 3 1 3 4 4 6 5 4 4 7 5 4 3 1 3 4 2 3 5 6 5 6 8 7 5 5 6 6 6 8 9 9 10 11 12 10 11 6 6 10 12 12 12 12 12 12 13 13 11 9
4 4 4 4 2 3 4 5 7 5 5 6 8 10 11 5 5 6 3 4 6 7 7 8 9 7 4 6 8 9 9 8 10 12 14 10 9 8 10 8 11 7 6 7 6 5 6 7 8 10 12 12 12 13
5 4 4 5 5 5 6 6 7 7 7 7 7 8 9 9 9 8 7 8 8 9 9 9 8 10 9 9 10 10 8 8 8 9 10 11 9 9 4 6 5 5 9 7 9 7 5 6 8 8 9 10 9 10
2 4 7 8 9 8 8 7 7 7 7 9 8 9 10 9 9 9 9 9 9 10 10 11 11 11 11 12 11 12 12 11 14 16 13 11 11 9 10 11 10 9 9 10 10 11 12 11 10 12 13 13 14 9
3 7 8 11 9 9 9 9 8 9 9 10 11 11 11 10 12 9 9 9 9 8 8 7 8 9 9 9 10 11 9 11 12 12 15 12 12 12 12 11 11 11 12 11 10 12 13 13 11 10 10 11 11 8
5 7 7 6 8 11 8 9 8 10 11 12 12 12 11 11 8 4 5 2 2 4 5 5 6 7 8 9 9 8 8 9 11 5 7 7 8 7 10 12 13 13 16 10 10 12 15 12 8 10 11 10 8 6
Wind_Direction
288 212 183 176 178 170 174 175 162 153 118 39 12 356 350 339 319 292 98 49 283 262 114 214 296 265 207 240 261 68 211 204 224 237 251 248 275 205 241 261 293 289 281 272 255 277 254 20 341 1 47 79 21 3
265 194 178 170 171 166 168 167 159 146 117 53 19 358 355 355 341 321 202 162 284 267 29 334 328 343 339 17 325 211 354 322 8 253 233 263 125 255 304 280 120 239 289 323 319 357 102 187 228 89 32 12 5 24
206 181 171 165 165 163 163 163 155 144 113 62 22 3 355 357 351 314 352 79 218 253 233 223 217 167 204 205 18 291 86 342 187 324 323 314 309 317 248 233 248 196 156 266 298 170 250 121 141 227 233 39 65 50
176 169 164 160 161 161 161 159 155 142 115 63 30 8 355 351 333 310 269 51 275 291 254 155 138 171 133 161 196 304 330 292 279 253 272 272 256 336 269 340 265 357 134 285 282 258 237 132 47 28 74 116 108 89
165 161 158 157 159 160 159 157 152 143 108 55 30 4 347 343 327 286 92 62 7 302 297 130 186 143 185 193 198 213 277 299 268 245 226 243 259 292 265 318 297 284 263 277 7 3 68 83 100 97 89 71 54 39
156 155 153 154 157 159 159 157 153 140 93 39 17 350 337 323 309 234 196 135 13 292 271 222 87 160 183 202 209 223 252 253 266 298 273 272 66 329 270 263 261 89 75 310 334 29 91 114 94 100 89 62 32 36
153 152 150 152 155 158 159 158 154 132 57 14 354 338 320 294 250 302 13 31 344 287 250 243 167 172 186 190 204 227 175 250 269 279 253 270 156 227 266 268 309 136 92 326 279 187 174 156 132 116 98 88 95 81
150 147 146 150 155 157 158 155 148 93 349 337 333 320 321 104 121 181 101 88 313 269 259 263 103 163 190 213 202 201 234 201 200 265 265 254 184 220 263 276 285 275 310 266 234 217 210 135 152 107 111 103 112 112
143 142 142 148 152 153 155 151 134 327 318 315 314 276 211 228 220 71 306 265 249 296 280 236 225 160 172 231 11 180 270 234 141 242 241 227 253 247 247 292 294 307 244 275 185 187 166 175 138 141 123 121 110 99
136 137 138 144 147 150 151 143 344 313 303 315 252 211 177 94 217 209 181 201 201 186 226 260 353 161 232 174 191 182 201 264 227 200 62 246 254 270 281 26 296 291 242 244 187 189 196 174 126 138 118 131 122 122
129 133 135 142 142 142 139 126 305 311 262 211 204 131 71 130 222 216 211 228 171 216 182 239 315 236 78 253 178 258 13 72 251 139 240 243 200 51 12 305 273 261 264 244 258 117 349 94 135 140 125 124 123 110
130 133 137 136 133 124 92 29 312 253 9 20 8 203 183 213 216 209 201 182 229 209 148 213 151 355 93 296 278 148 257 177 256 87 249 252 77 40 4 352 306 254 227 197 152 169 128 129 141 137 128 117 112 112
129 128 129 126 118 105 82 57 51 50 236 201 219 182 215 141 136 206 187 198 186 165 146 174 163 199 166 236 261 236 219 236 40 235 240 82 58 44 20 350 72 143 176 157 142 168 147 133 135 127 123 124 120 115
119 119 115 109 101 86 67 38 351 276 259 224 155 21 211 189 220 201 212 182 73 113 179 208 131 213 176 189 191 235 151 292 247 251 234 60 34 17 337 337 104 93 133 142 145 141 151 131 132 131 128 127 128 128
110 108 103 76 80 66 37 350 306 243 284 186 215 200 200 59 32 50 28 109 90 38 200 186 220 235 188 193 213 200 196 222 225 270 67 51 25 17 9 357 349 123 135 138 155 154 133 142 141 135 137 138 132 135
107 84 54 59 52 25 339 257 230 266 282 253 221 208 126 207 139 177 181 112 108 192 202 267 190 220 185 224 184 202 227 218 160 82 74 54 25 11 5 351 323 337 78 118 146 139 145 151 148 143 140 140 141 143
84 77 43 26 356 352 9 285 212 54 15 200 172 310 341 342 128 99 67 59 303 247 210 194 213 184 77 215 219 167 231 92 117 96 73 28 12 356 340 329 180 194 174 153 148 154 152 149 145 154 151 148 146 144
84 91 41 15 358 54 44 8 25 133 157 173 216 131 336 17 119 125 114 59 270 272 249 339 355 218 218 190 230 135 81 99 65 45 67 30 23 355 338 324 307 157 155 160 167 159 153 164 168 164 152 154 156 153
75 70 43 27 27 74 46 50 334 29 45 113 79 183 244 122 34 40 89 102 29 327 283 220 242 238 222 136 352 124 90 15 47 321 137 105 52 17 13 16 0 92 160 168 168 179 169 190 196 156 175 174 191 183
67 41 37 22 27 60 62 34 282 277 185 88 223 199 209 158 114 198 184 223 257 233 200 233 248 53 14 57 8 30 43 312 287 295 330 35 83 199 64 323 46 104 188 152 183 261 169 200 197 183 207 188 218 192
94 24 19 36 42 30 128 339 168 17 120 216 91 208 154 175 200 197 198 161 230 233 224 227 329 80 7 17 39 337 129 346 339 344 358 319 9 310 234 151 217 240 226 194 196 176 266 214 205 197 197 218 219 225
97 216 137 136 86 134 119 341 325 78 246 94 190 241 184 193 192 204 207 229 235 240 271 342 290 119 180 191 83 1 5 314 273 285 227 249 262 306 341 351 316 304 299 251 253 244 193 220 230 204 223 215 208 234
219 210 67 48 99 105 252 220 196 199 186 152 178 200 209 217 226 72 245 236 232 224 247 263 270 271 293 313 298 278 269 287 281 276 275 276 289 302 279 288 293 293 293 267 237 276 251 51 90 264 245 220 240 224
117 47 57 92 137 120 171 184 183 177 189 185 201 211 202 205 206 224 251 251 249 231 232 227 252 253 246 240 255 259 258 247 256 263 264 268 265 268 279 285 278 287 293 289 295 299 276 256 310 246 243 266 249 239
75 21 130 283 192 162 170 174 189 192 192 192 193 199 190 129 231 245 247 229 232 241 253 254 252 259 266 274 278 277 278 273 274 273 270 273 281 282 274 267 271 271 274 270 268 264 261 256 260 247 248 258 253 259
127 162 198 156 153 171 165 175 192 201 203 191 201 240 201 209 251 247 237 222 226 248 260 254 280 288 279 275 273 277 281 281 283 281 281 279 277 276 277 280 282 280 278 284 281 282 265 272 286 284 262 253 242 257
195 144 155 321 111 164 212 247 224 208 204 205 211 199 185 222 234 232 208 227 253 273 319 302 290 286 283 281 278 296 317 310 294 295 303 304 304 301 296 291 290 295 311 316 316 307 291 283 284 287 290 282 253 267
301 128 129 189 113 338 289 296 221 218 232 214 227 207 207 221 246 253 118 100 126 285 294 297 282 269 271 272 299 300 285 289 282 252 248 250 253 258 260 269 276 48 327 309 304 301 294 290 288 291 295 296 301 302
206 217 198 164 65 336 263 238 236 250 228 241 246 236 250 279 301 316 322 331 315 297 281 271 271 272 252 257 244 253 257 277 289 291 298 302 301 27 33 346 344 316 257 253 185 274 297 296 312 307 304 301 298 295
246 190 225 262 195 218 223 221 249 264 263 240 243 249 256 257 262 270 274 266 264 274 278 280 282 283 284 279 280 282 286 277 273 275 275 280 289 299 277 287 277 237 276 324 317 298 164 249 246 239 255 266 274 281
258 213 234 244 256 252 255 228 235 260 251 263 249 249 253 258 259 257 263 272 277 274 272 272 274 274 274 273 274 278 278 276 279 282 284 290 284 278 284 287 281 279 278 281 287 290 293 298 298 296 296 293 293 286
236 243 246 254 256 251 244 243 250 251 252 246 245 247 250 253 255 263 255 243 243 240 240 251 270 272 275 280 279 278 274 283 286 285 282 284 285 283 279 277 272 268 270 267 274 280 281 284 287 286 293 299 301 311
278 259 251 255 260 258 248 234 250 253 238 235 239 240 240 240 230 240 284 168 306 337 321 313 316 307 315 306 295 296 288 281 282 290 275 264 267 288 293 287 288 291 288 265 272 279 280 279 291 297 291 291 299 315